User: anonymous   Login
Location: Caltech
(34.1382°N, 118.1253°W)
Time: 05:04:50
(UTC-08:00)
Language:

Meteor 1-11 Rocket - Orbit

View from above orbital plane
View from above orbital plane
View from above satellite
View from above satellite

Ground track
Ground track

The orbit data is extracted from the following two-line orbital elements,

1 05918U 72022B   16037.21582444  .00000018  00000-0  36341-5 0  9994
2 05918  81.2357  86.6273 0057407 283.6314  75.8465 14.05792628248163
Epoch (UTC): 06 February 2016 05:10:47
Eccentricity: 0.0057407
inclination: 81.2357°
perigee height: 832 km
apogee height: 915 km
right ascension of ascending node: 86.6273°
argument of perigee: 283.6314°
revolutions per day: 14.05792628
mean anomaly at epoch: 75.8465°
orbit number at epoch: 24816

The dashed part of the orbit path shows where the satellite is in the earth's shadow,  

DLR